Location: Sevilla
(37.3933°N, 5.9839°W)
Time: 12:06:25
(UTC+02:00)

Vanguard 3 - Visible Passes

Search period start: 21 June 2024 00:00
Search period end: 01 July 2024 00:00
Orbit: 509 x 3231 km, 33.3° (Epoch: 20 June)

Date Brightness Start Highest point End Pass type
(mag) Time Alt. Az. Time Alt. Az. Time Alt. Az.
26 Jun 11.1 06:24:02 10° S 06:33:49 17° SE 06:41:51 10° ESE visible
28 Jun 11.0 05:56:20 10° S 06:08:08 20° SE 06:17:51 10° ESE visible
29 Jun 11.3 04:43:40 10° SSE 04:48:06 11° SE 04:52:20 10° SE visible
30 Jun 11.0 05:28:57 10° S 05:42:17 23° SE 05:53:26 10° E visible
